Regional Weather Roundup
Issued by NWS Charleston, WV

Home | Current Version | Previous Version | Graphics & Text | Print | Product List | Glossary On
Versions: 1 2 3 4 5 6 7 8 9 10 11 12 13 14 15 16 17 18 19 20 21 22 23 24 25 26 27 28 29 30 31 32 33 34 35 36 37 38 39 40 41 42 43 44 45 46 47 48 49 50
000
ASUS41 KRLX 101310
RWRRLX
West Virginia Regional Weather Roundup
National Weather Service Charleston WV
800 AM EST WED FEB 10 2016

Note: "fair" indicates few or no clouds below 12,000 feet with no
significant weather and/or obstructions to visibility.

WVZ003-101400-
Northern Panhandle of West Virginia

CITY           SKY/WX    TMP DP  RH WIND       PRES   REMARKS
WHEELING       CLOUDY    18  10  71 W12G25    29.81R WCI   5
$$

WVZ009-101400-
Northwest West Virginia

CITY           SKY/WX    TMP DP  RH WIND       PRES   REMARKS
PARKERSBURG    CLOUDY    16   8  71 W7        29.94R WCI   6
$$

WVZ006-101400-
Western West Virginia

CITY           SKY/WX    TMP DP  RH WIND       PRES   REMARKS
HUNTINGTON     CLOUDY    18   8  65 W8        29.97R WCI   8
$$

WVZ015-101400-
West Central West Virginia

CITY           SKY/WX    TMP DP  RH WIND       PRES   REMARKS
CHARLESTON     LGT SNOW  18  13  80 W10G16    29.95R WCI   6
$$

WVZ022-031-101400-
North Central West Virginia

CITY           SKY/WX    TMP DP  RH WIND       PRES   REMARKS
CLARKSBURG     FLURRIES  20  14  77 SW12      29.84R WCI   8
MORGANTOWN     CLOUDY    20  12  71 W7        29.82R
$$

WVZ025-035-042-045-101400-
Southern West Virginia

CITY           SKY/WX    TMP DP  RH WIND       PRES   REMARKS
BECKLEY        LGT SNOW  14   9  80 W10G17    29.81R VSB 1   WCI   1
LOGAN          LGT SNOW  16   9  73 VRB6G12   29.91R WCI   7
BLUEFIELD      LGT SNOW  13   7  77 W13G24    29.79R WCI  -2
LEWISBURG      FLURRIES  20  13  73 W10       29.79R WCI   9
$$

WVZ047-101400-
Northern Mountains of West Virginia

CITY           SKY/WX    TMP DP  RH WIND       PRES   REMARKS
ELKINS         LGT SNOW  18  11  74 W8        29.79R WCI   8
$$

WVZ052-101400-
Eastern Panhandle of West Virginia

CITY           SKY/WX    TMP DP  RH WIND       PRES   REMARKS
MARTINSBURG    CLOUDY    28  15  58 W12       29.77R
PETERSBURG     CLOUDY    26  13  58 CALM      29.80R
$$



USA.gov is the U.S. government's official web portal to all federal, state and local government web resources and services.